[Date Prev][Date Next][Thread Prev][Thread Next] - [Date Index][Thread Index][Author Index]

2 Line ISS Keps 6-4



ISS
1 25544U 98067A   03155.11598380  .00014369  00000-0  18567-3 0   779
2 25544  51.6326  85.9185 0006656 211.6219 342.2187 15.59199329258966



----
Via the sarex mailing list at AMSAT.ORG courtesy of AMSAT-NA.
To unsubscribe, send "unsubscribe sarex" to Majordomo@amsat.org



AMSAT Top AMSAT Home